Change the Weather History Date:

Monday, March 10, 2014

  Actual Average (KHTL) Record (KHTL)
Temperature  
Mean Temperature 36 °F 27 °F  
Max Temperature 52 °F 37 °F 59 °F (1977)
Min Temperature 20 °F 16 °F -17 °F (1972)
Degree Days  
Heating Degree Days 29 38  
Month to date heating degree days 401  
Since 1 July heating degree days 6273  
Cooling Degree Days 0 0  
Month to date cooling degree days 0  
Year to date cooling degree days 0  
Moisture  
Dew Point 29 °F    
Average Humidity 69    
Maximum Humidity 100    
Minimum Humidity 42    
Precipitation  
Precipitation 0.00 in 0.06 in 0.50 in (1986)
Month to date precipitation 0.55  
Year to date precipitation 3.27  
Snow  
Snow 0.00 in 0.30 in 2.80 in (1992)
Month to date snowfall 3.3  
Since 1 July snowfall 57.8  
Snow Depth -    
Sea Level Pressure  
Sea Level Pressure 29.55 in    
Wind  
Wind Speed 6 mph (WSW)    
Max Wind Speed 16 mph    
Max Gust Speed 24 mph    
Visibility 9 miles    
Events      
T = Trace of Precipitation, MM = Missing Value Source: NWS Daily Summary

Daily Weather History Graph

Daily Weather History Graph

Search for Another Location

Airport or City:

Trip Planner

Search our weather history database for the weather conditions in past years. The results will help you decide how hot, cold, wet, or windy it might be!

Date:

Astronomy

Mar. 10, 2014 Rise Set
Actual Time 8:00 AM EDT 7:38 PM EDT
Civil Twilight 7:31 AM EDT 8:07 PM EDT
Nautical Twilight 6:57 AM EDT 8:41 PM EDT
Astronomical Twilight 6:23 AM EDT 9:15 PM EDT
Moon 2:11 PM EDT (3/10) 4:21 AM EDT (3/10)
Length of Visible Light 12h 36m
Length of Day
11h 38m
Waxing Gibbous, 70% of the Moon is Illuminated
Mar 10
Waxing Gibbous
Mar 16
Full
Mar 23
Last Quarter
Mar 30
New
Apr 7
First Quarter

Hourly Weather History & Observations

Time (EDT) Temp. Windchill Dew Point Humidity Pressure Visibility Wind Dir Wind Speed Gust Speed Precip Events Conditions
12:15 AM 33.1 °F 26.1 °F 24.1 °F 70% 29.67 in 10.0 mi WSW 8.1 mph - N/A   Scattered Clouds
12:34 AM 33.1 °F 28.7 °F 24.4 °F 71% 29.67 in 10.0 mi WSW 4.6 mph - N/A   Scattered Clouds
12:55 AM 32.9 °F 29.8 °F 24.4 °F 71% 29.67 in 10.0 mi WSW 3.5 mph - N/A   Clear
1:14 AM 32.9 °F 29.8 °F 25.0 °F 73% 29.66 in 10.0 mi WSW 3.5 mph - N/A   Clear
1:35 AM 32.9 °F 28.5 °F 25.3 °F 74% 29.65 in 10.0 mi West 4.6 mph - N/A   Clear
1:54 AM 32.9 °F 28.5 °F 25.7 °F 75% 29.65 in 10.0 mi West 4.6 mph - N/A   Clear
2:15 AM 32.9 °F 26.7 °F 25.7 °F 75% 29.65 in 10.0 mi West 6.9 mph - N/A   Scattered Clouds
2:35 AM 32.9 °F 27.5 °F 26.1 °F 76% 29.64 in 10.0 mi WSW 5.8 mph - N/A   Mostly Cloudy
2:55 AM 32.9 °F 27.5 °F 26.1 °F 76% 29.64 in 10.0 mi WSW 5.8 mph - N/A   Scattered Clouds
3:15 AM 32.9 °F 26.7 °F 26.2 °F 76% 29.64 in 10.0 mi WSW 6.9 mph - N/A   Scattered Clouds
3:34 AM 32.9 °F 27.5 °F 26.6 °F 78% 29.64 in 10.0 mi WSW 5.8 mph - N/A   Mostly Cloudy
3:54 AM 32.9 °F 27.5 °F 26.6 °F 78% 29.63 in 10.0 mi SW 5.8 mph - N/A   Overcast
4:15 AM 32.9 °F 26.7 °F 27.0 °F 79% 29.62 in 10.0 mi SW 6.9 mph - N/A   Mostly Cloudy
4:35 AM 32.9 °F - 27.3 °F 80% 29.63 in 10.0 mi Calm Calm - N/A   Mostly Cloudy
4:54 AM 32.9 °F - 27.5 °F 81% 29.63 in 10.0 mi Calm Calm - N/A   Overcast
5:15 AM 32.9 °F - 28.0 °F 82% 29.62 in 10.0 mi Calm Calm - N/A   Overcast
5:35 AM 32.9 °F - 28.2 °F 83% 29.62 in 10.0 mi Calm Calm - N/A   Overcast
5:54 AM 32.9 °F - 28.9 °F 85% 29.61 in 10.0 mi Calm Calm - N/A   Mostly Cloudy
6:15 AM 30.6 °F 27.1 °F 27.9 °F 90% 29.60 in 10.0 mi SSE 3.5 mph - N/A   Mostly Cloudy
6:34 AM 30.7 °F - 27.7 °F 88% 29.60 in 10.0 mi Calm Calm - N/A   Scattered Clouds
6:55 AM 29.3 °F 24.3 °F 27.1 °F 92% 29.59 in 7.0 mi South 4.6 mph - N/A   Clear
7:15 AM 29.3 °F - 27.5 °F 93% 29.60 in 7.0 mi Calm Calm - N/A   Clear
7:35 AM 21.9 °F - 20.1 °F 93% 29.60 in 5.0 mi Calm Calm - N/A   Clear
7:54 AM 23.0 °F - 22.5 °F 98% 29.60 in 2.5 mi Calm Calm - N/A   Clear
8:15 AM 20.8 °F - 20.7 °F 99% 29.60 in 1.8 mi Calm Calm - N/A   Mist
8:34 AM 20.3 °F - 20.1 °F 99% 29.60 in 1.0 mi Calm Calm - N/A   Mist
8:55 AM 20.8 °F - 20.8 °F 100% 29.59 in 0.8 mi Calm Calm - N/A   Mist
9:14 AM 21.0 °F - 20.8 °F 99% 29.59 in 1.8 mi Calm Calm - N/A   Mist
9:35 AM 30.2 °F 24.3 °F 30.2 °F 100% 29.59 in 4.0 mi SSW 5.8 mph - N/A   Clear
9:55 AM 32.9 °F 28.5 °F 30.0 °F 89% 29.57 in 5.0 mi SW 4.6 mph - N/A   Clear
10:14 AM 35.1 °F 31.0 °F 30.9 °F 85% 29.57 in 5.0 mi SSW 4.6 mph - N/A   Clear
10:35 AM 35.2 °F 32.4 °F 30.4 °F 82% 29.57 in 5.0 mi SSW 3.5 mph - N/A   Haze
10:54 AM 37.2 °F - 30.7 °F 77% 29.56 in 7.0 mi Calm Calm - N/A   Clear
11:15 AM 37.6 °F 32.3 °F 29.8 °F 74% 29.55 in 7.0 mi SW 6.9 mph - N/A   Clear
11:35 AM 38.5 °F 32.7 °F 29.8 °F 71% 29.54 in 10.0 mi SW 8.1 mph - N/A   Clear
11:54 AM 38.8 °F 33.8 °F 29.3 °F 69% 29.53 in 7.0 mi SW 6.9 mph - N/A   Clear
12:15 PM 41.0 °F 36.4 °F 29.7 °F 64% 29.52 in 10.0 mi SW 6.9 mph - N/A   Clear
12:35 PM 42.8 °F 37.0 °F 30.0 °F 61% 29.52 in 10.0 mi WSW 10.4 mph - N/A   Clear
12:54 PM 44.1 °F 38.1 °F 30.0 °F 58% 29.51 in 10.0 mi SW 11.5 mph 17.3 mph N/A   Clear
1:15 PM 44.6 °F 38.4 °F 30.7 °F 58% 29.50 in 10.0 mi SW 12.7 mph 18.4 mph N/A   Clear
1:35 PM 47.7 °F - 32.0 °F 55% 29.49 in 10.0 mi SW 10.4 mph - N/A   Clear
1:54 PM 47.7 °F - 30.9 °F 52% 29.47 in 10.0 mi WSW 10.4 mph - N/A   Clear
2:15 PM 48.0 °F - 30.0 °F 50% 29.46 in 10.0 mi SW 12.7 mph 18.4 mph N/A   Clear
2:35 PM 50.2 °F - 30.0 °F 46% 29.44 in 10.0 mi WSW 15.0 mph 21.9 mph N/A   Clear
2:55 PM 52.2 °F - 31.1 °F 45% 29.44 in 10.0 mi West 13.8 mph 24.2 mph N/A   Clear
3:15 PM 52.7 °F - 31.1 °F 44% 29.43 in 10.0 mi WSW 9.2 mph - N/A   Clear
3:35 PM 52.7 °F - 30.0 °F 42% 29.43 in 10.0 mi WSW 15.0 mph 21.9 mph N/A   Clear
3:55 PM 52.7 °F - 29.8 °F 42% 29.42 in 10.0 mi SW 12.7 mph 18.4 mph N/A   Clear
4:15 PM 52.7 °F - 30.0 °F 42% 29.42 in 10.0 mi WSW 12.7 mph 20.7 mph N/A   Clear
4:35 PM 52.7 °F - 30.0 °F 42% 29.42 in 10.0 mi West 9.2 mph 20.7 mph N/A   Clear
4:54 PM 52.7 °F - 30.7 °F 43% 29.42 in 10.0 mi West 15.0 mph 23.0 mph N/A   Clear
5:15 PM 52.7 °F - 31.3 °F 44% 29.43 in 10.0 mi WSW 10.4 mph 20.7 mph N/A   Clear
5:34 PM 52.7 °F - 31.6 °F 45% 29.44 in 10.0 mi West 16.1 mph 20.7 mph N/A   Clear
5:55 PM 52.7 °F - 32.0 °F 45% 29.45 in 10.0 mi West 12.7 mph 20.7 mph N/A   Clear
6:15 PM 52.7 °F - 32.0 °F 45% 29.46 in 10.0 mi West 12.7 mph 18.4 mph N/A   Clear
6:34 PM 50.5 °F - 31.5 °F 48% 29.48 in 10.0 mi West 10.4 mph - N/A   Clear
6:55 PM 48.9 °F - 31.1 °F 50% 29.48 in 10.0 mi WSW 12.7 mph 18.4 mph N/A   Clear
7:15 PM 47.7 °F - 31.5 °F 53% 29.48 in 10.0 mi WSW 9.2 mph - N/A   Clear
7:34 PM 47.7 °F - 32.0 °F 55% 29.49 in 10.0 mi West 8.1 mph - N/A   Clear
7:55 PM 46.0 °F 41.9 °F 32.0 °F 58% 29.50 in 10.0 mi West 8.1 mph - N/A   Clear
8:15 PM 45.0 °F 42.6 °F 31.8 °F 60% 29.51 in 10.0 mi West 4.6 mph - N/A   Clear
8:34 PM 45.1 °F 41.4 °F 32.0 °F 60% 29.52 in 10.0 mi WSW 6.9 mph - N/A   Clear
8:55 PM 43.5 °F 38.9 °F 31.3 °F 62% 29.53 in 10.0 mi WSW 8.1 mph - N/A   Clear
9:14 PM 42.8 °F 39.3 °F 30.7 °F 62% 29.54 in 10.0 mi West 5.8 mph - N/A   Clear
9:35 PM 41.5 °F 38.6 °F 30.4 °F 65% 29.55 in 10.0 mi West 4.6 mph - N/A   Clear
9:55 PM 41.2 °F 38.2 °F 30.6 °F 66% 29.55 in 10.0 mi West 4.6 mph - N/A   Clear
10:14 PM 40.3 °F 37.1 °F 30.2 °F 67% 29.56 in 10.0 mi West 4.6 mph - N/A   Clear
10:35 PM 40.1 °F 36.1 °F 30.2 °F 68% 29.57 in 10.0 mi WSW 5.8 mph - N/A   Clear
10:55 PM 39.9 °F 36.7 °F 30.7 °F 70% 29.56 in 10.0 mi WSW 4.6 mph - N/A   Clear
11:14 PM 39.0 °F 35.7 °F 30.0 °F 70% 29.56 in 10.0 mi WSW 4.6 mph - N/A   Clear
11:35 PM 37.9 °F 34.4 °F 29.5 °F 72% 29.56 in 10.0 mi WSW 4.6 mph - N/A   Clear
11:55 PM 37.6 °F 33.1 °F 30.0 °F 74% 29.56 in 10.0 mi WSW 5.8 mph - N/A   Clear